Weather History for Grand Forks AFB, ND

Change the Weather History Date:

Sunday, February 24, 2013

  Actual Average Record
Temperature  
Mean Temperature 12 °F -  
Max Temperature 25 °F 23 °F 46 °F (1998)
Min Temperature -1 °F 7 °F -23 °F (2003)
Degree Days  
Heating Degree Days 53    
Moisture  
Dew Point 12 °F    
Average Humidity 83    
Maximum Humidity 87    
Minimum Humidity 74    
Precipitation  
Precipitation 0.00 in - - ()
Sea Level Pressure  
Sea Level Pressure 30.01 in    
Wind  
Wind Speed 6 mph (SSW)    
Max Wind Speed 12 mph    
Max Gust Speed -    
Visibility 10 miles    
Events Snow    
Averages and records for this station are not official NWS values.
T = Trace of Precipitation, MM = Missing Value Source: NWS Daily Summary

Daily Weather History Graph

Daily Weather History Graph

Search for Another Location

Airport:

Trip Planner

Search our weather history database for the weather conditions in past years. The results will help you decide how hot, cold, wet, or windy it might be!

Date:

Astronomy

Feb. 24, 2013 Rise Set
Actual Time 7:19 AM CST 6:06 PM CST
Civil Twilight 6:48 AM CST 6:38 PM CST
Nautical Twilight 6:12 AM CST 7:14 PM CST
Astronomical Twilight 5:36 AM CST 7:50 PM CST
Moon 5:19 PM CST (2/24) 6:19 AM CST (2/24)
Length of Visible Light 11h 50m
Length of Day
10h 47m
Waxing Gibbous, 99% of the Moon is Illuminated
Feb 24
Waxing Gibbous
Feb 25
Full
Mar 4
Last Quarter
Mar 11
New
Mar 19
First Quarter

Hourly Weather History & Observations

Time (CST) Temp. Windchill Dew Point Humidity Pressure Visibility Wind Dir Wind Speed Gust Speed Precip Events Conditions
12:55 AM 5.4 °F -1.7 °F 1.9 °F 86% 29.96 in 10.0 mi South 3.5 mph - N/A   Clear
1:55 AM 3.0 °F -4.4 °F -0.9 °F 84% 29.97 in 10.0 mi South 3.5 mph - N/A   Clear
2:55 AM 1.2 °F -10.1 °F -3.1 °F 82% 29.98 in 10.0 mi SE 5.8 mph - N/A   Clear
3:55 AM -0.9 °F -8.9 °F -5.4 °F 81% 29.99 in 10.0 mi SSE 3.5 mph - N/A   Clear
4:55 AM -0.6 °F -10.6 °F -5.1 °F 81% 30.00 in 10.0 mi South 4.6 mph - N/A   Clear
5:55 AM -1.1 °F -11.2 °F -5.6 °F 81% 30.00 in 10.0 mi SSE 4.6 mph - N/A   Clear
6:55 AM -1.5 °F -9.5 °F -6.0 °F 81% 30.00 in 10.0 mi SSE 3.5 mph - N/A   Clear
7:55 AM -0.8 °F -10.8 °F -5.3 °F 81% 30.01 in 10.0 mi SSE 4.6 mph - N/A   Clear
8:55 AM 2.3 °F -10.2 °F -1.7 °F 84% 30.01 in 10.0 mi SSE 6.9 mph - N/A   Clear
9:55 AM 5.9 °F -7.0 °F 2.3 °F 85% 30.02 in 10.0 mi South 8.1 mph - N/A   Clear
10:55 AM 11.5 °F -0.2 °F 8.4 °F 87% 30.03 in 10.0 mi South 8.1 mph - N/A   Clear
11:55 AM 15.1 °F 4.2 °F 11.7 °F 86% 30.02 in 10.0 mi SSE 8.1 mph - N/A   Partly Cloudy
12:55 PM 18.7 °F 8.6 °F 12.2 °F 76% 30.02 in 10.0 mi South 8.1 mph - N/A   Partly Cloudy
1:55 PM 20.7 °F 10.2 °F 14.2 °F 76% 30.01 in 10.0 mi South 9.2 mph - N/A   Scattered Clouds
2:05 PM 21.2 °F 10.1 °F 14.0 °F 74% 30.00 in 10.0 mi South 10.4 mph - N/A   Mostly Cloudy
2:07 PM 21.2 °F 10.1 °F 15.8 °F 80% 30.00 in 10.0 mi South 10.4 mph - N/A   Mostly Cloudy
2:55 PM 21.7 °F 10.2 °F 15.8 °F 78% 29.99 in 10.0 mi South 11.5 mph - N/A   Overcast
3:55 PM 22.5 °F 12.4 °F 16.9 °F 79% 30.00 in 10.0 mi South 9.2 mph - N/A   Overcast
4:04 PM 23.0 °F 13.9 °F 17.6 °F 80% 30.00 in 10.0 mi South 8.1 mph - N/A   Overcast
4:33 PM 23.0 °F 13.1 °F 17.6 °F 80% 30.00 in 10.0 mi South 9.2 mph - N/A   Overcast
4:53 PM 23.0 °F 14.7 °F 17.6 °F 80% 30.01 in 10.0 mi South 6.9 mph - N/A   Overcast
4:55 PM 22.1 °F 13.7 °F 17.2 °F 82% 30.01 in 10.0 mi South 6.9 mph - N/A   Overcast
5:55 PM 22.6 °F 13.4 °F 18.3 °F 83% 30.02 in 10.0 mi South 8.1 mph - N/A   Overcast
6:16 PM 23.0 °F 14.7 °F 19.4 °F 86% 30.02 in 10.0 mi South 6.9 mph - N/A   Overcast
6:44 PM 23.0 °F 15.8 °F 19.4 °F 86% 30.03 in 10.0 mi South 5.8 mph - N/A   Overcast
6:55 PM 23.0 °F 15.8 °F 19.2 °F 85% 30.03 in 10.0 mi South 5.8 mph - N/A   Overcast
7:55 PM 24.4 °F 17.5 °F 20.8 °F 86% 30.04 in 10.0 mi SW 5.8 mph - N/A   Overcast
8:01 PM 24.8 °F 17.9 °F 21.2 °F 86% 30.04 in 10.0 mi West 5.8 mph - N/A   Overcast
8:30 PM 24.8 °F 16.9 °F 21.2 °F 86% 30.04 in 10.0 mi West 6.9 mph - N/A   Overcast
8:55 PM 25.2 °F 16.5 °F 20.5 °F 82% 30.04 in 10.0 mi West 8.1 mph - N/A   Overcast
9:37 PM 24.8 °F 17.9 °F 21.2 °F 86% 30.04 in 10.0 mi West 5.8 mph - N/A   Overcast
9:55 PM 24.6 °F 17.7 °F 20.3 °F 84% 30.04 in 10.0 mi West 5.8 mph - N/A   Overcast
10:32 PM 24.8 °F 15.3 °F 19.4 °F 80% 30.04 in 10.0 mi WNW 9.2 mph - N/A   Overcast
10:55 PM 22.8 °F 13.6 °F 18.7 °F 84% 30.04 in 10.0 mi WNW 8.1 mph - N/A   Mostly Cloudy
11:55 PM 16.0 °F 7.4 °F 12.7 °F 87% 30.04 in 10.0 mi West 5.8 mph - N/A   Clear
11:56 PM 15.8 °F 7.2 °F 12.2 °F 86% 30.04 in 10.0 mi West 5.8 mph - N/A Snow Light Snow